AE7MK-13 Weather Reports


time (UTC)temp
C
wind
direction
speed
KPH
gust
KPH
rain 1hr
cm
rain 24hr
cm
rain mn
cm
humidity
%
barometer
mb
20260502191003 18 10 9.7 19.3 0.00 0.00 0.00 34 1019.4
20260502190004 18 7 9.7 17.7 0.00 0.00 0.00 37 1019.3
20260502185003 18 358 9.7 22.5 0.00 0.00 0.00 33 1019.4
20260502184003 17 7 12.9 24.1 0.00 0.00 0.00 34 1019.3
20260502183003 17 13 12.9 27.4 0.00 0.00 0.00 35 1019.3
20260502182003 17 10 14.5 25.7 0.00 0.00 0.00 36 1019.2
20260502181213 17 7 12.9 24.1 0.00 0.00 0.00 38 1019.2
20260502180213 17 6 14.5 24.1 0.00 0.00 0.00 38 1019.1
20260502164003 16 360 12.9 22.5 0.00 0.00 0.00 40 1018.7
20260502163003 15 3 11.3 24.1 0.00 0.00 0.00 40 1018.7
20260502162003 15 5 14.5 24.1 0.00 0.00 0.00 39 1018.7
20260502161003 16 357 12.9 24.1 0.00 0.00 0.00 39 1018.7
20260502152214 15 3 6.4 14.5 0.00 0.00 0.00 44 1018.7
20260502151003 14 11 0.0 1.6 0.00 0.00 0.00 46 1018.9
20260502123003 13 9 11.3 19.3 0.00 0.00 0.00 45 1017.5
20260502122003 13 15 11.3 22.5 0.00 0.00 0.00 46 1017.5
20260502121213 13 10 12.9 22.5 0.00 0.00 0.00 47 1017.8
20260502115003 12 342 4.8 11.3 0.00 0.00 0.00 51 1018.2
20260502114003 12 325 3.2 9.7 0.00 0.00 0.00 53 1018.3
20260502113003 12 317 3.2 11.3 0.00 0.00 0.00 52 1018.4
20260502112213 12 313 3.2 14.5 0.00 0.00 0.00 51 1018.4
20260502111213 12 340 1.6 9.7 0.00 0.00 0.00 53 1018.3
20260502110003 12 347 4.8 9.7 0.00 0.00 0.00 56 1018.2
20260502105214 12 335 3.2 9.7 0.00 0.00 0.00 55 1018.2
20260502104003 12 329 3.2 9.7 0.00 0.00 0.00 54 1018.2
20260502103003 12 359 4.8 12.9 0.00 0.00 0.00 53 1018.2
20260502101003 12 297 12.9 14.5 0.00 0.00 0.00 50 1018.4
20260502091214 10 327 3.2 6.4 0.00 0.00 0.00 58 1018.1
20260502071003 9 330 6.4 9.7 0.00 0.00 0.00 60 1018.2
20260502070003 9 328 4.8 8.0 0.00 0.00 0.00 61 1018.1
20260502065003 9 336 4.8 9.7 0.00 0.00 0.00 60 1018.1
20260502064003 9 334 6.4 11.3 0.00 0.00 0.00 59 1018.1
20260502063003 10 335 8.0 9.7 0.00 0.00 0.00 58 1018.1
20260502062003 10 334 4.8 9.7 0.00 0.00 0.00 55 1018.2
20260502061003 10 332 4.8 9.7 0.00 0.00 0.00 55 1018.1
20260502060003 10 326 6.4 8.0 0.00 0.00 0.00 55 1018.0
20260502055003 10 324 6.4 9.7 0.00 0.00 0.00 57 1018.1
20260502054003 10 323 1.6 6.4 0.00 0.00 0.00 57 1018.1
20260502053003 10 334 4.8 8.0 0.00 0.00 0.00 56 1018.1
20260502052213 10 334 4.8 8.0 0.00 0.00 0.00 55 1018.1
20260502051003 10 328 4.8 9.7 0.00 0.00 0.00 55 1018.0
20260502050004 10 336 8.0 11.3 0.00 0.00 0.00 57 1018.1
20260502045212 10 335 6.4 9.7 0.00 0.00 0.00 55 1018.2
20260502044005 10 335 6.4 8.0 0.00 0.00 0.00 55 1018.2
20260502043003 10 333 6.4 9.7 0.00 0.00 0.00 56 1018.1
20260502042003 10 335 4.8 9.7 0.00 0.00 0.00 54 1018.1
20260502041003 11 335 6.4 9.7 0.00 0.00 0.00 55 1017.8
20260502040003 11 335 4.8 6.4 0.00 0.00 0.00 53 1017.8
20260502035214 11 332 4.8 8.0 0.00 0.00 0.00 52 1017.7
20260502034003 11 331 6.4 9.7 0.00 0.00 0.00 54 1017.6
20260502033003 13 326 3.2 6.4 0.00 0.00 0.00 50 1017.6
20260502032003 12 326 3.2 6.4 0.00 0.00 0.00 51 1017.5
20260502031004 13 0 0.0 0.0 0.00 0.00 0.00 47 1017.5
20260502030003 14 0 0.0 0.0 0.00 0.00 0.00 47 1017.4
20260502025213 15 91 0.0 1.6 0.00 0.00 0.00 47 1017.4
20260502024213 15 0 0.0 0.0 0.00 0.00 0.00 44 1017.4
20260502023003 15 89 0.0 1.6 0.00 0.00 0.00 43 1017.3
20260502022004 15 0 0.0 0.0 0.00 0.00 0.00 42 1017.3
20260502021003 16 123 0.0 4.8 0.00 0.00 0.00 40 1017.3
20260502020213 16 0 0.0 0.0 0.00 0.00 0.00 39 1017.3
20260502015003 16 102 1.6 4.8 0.00 0.00 0.00 39 1017.3
20260502014003 16 119 1.6 4.8 0.00 0.00 0.00 40 1017.4
20260502013003 16 149 4.8 8.0 0.00 0.00 0.00 39 1017.5
20260502012003 16 151 6.4 11.3 0.00 0.00 0.00 38 1017.5
20260502011003 16 138 6.4 14.5 0.00 0.00 0.00 38 1017.5
20260502010003 17 133 4.8 12.9 0.00 0.00 0.00 37 1017.6
20260502005003 17 130 6.4 14.5 0.00 0.00 0.00 36 1017.6
20260502004004 17 102 3.2 9.7 0.00 0.00 0.00 35 1017.5
20260502003003 17 142 3.2 9.7 0.00 0.00 0.00 35 1017.6
20260502002003 17 147 3.2 12.9 0.00 0.00 0.00 34 1017.7
20260502001003 17 208 1.6 8.0 0.00 0.00 0.00 35 1017.8
20260502000004 17 153 4.8 11.3 0.00 0.00 0.00 34 1017.9
20260501235003 17 157 6.4 11.3 0.00 0.00 0.00 35 1017.9
20260501234212 17 124 4.8 12.9 0.00 0.00 0.00 34 1017.9
20260501233003 17 112 4.8 12.9 0.00 0.00 0.00 34 1018.0
20260501232212 17 136 4.8 11.3 0.00 0.00 0.00 34 1018.1
20260501231003 17 90 6.4 12.9 0.00 0.00 0.00 33 1018.2
20260501230005 16 123 4.8 12.9 0.00 0.00 0.00 37 1018.2
20260501225214 16 109 6.4 12.9 0.00 0.00 0.00 36 1018.4
20260501224003 16 103 6.4 9.7 0.00 0.00 0.00 36 1018.5
20260501223003 16 117 6.4 14.5 0.00 0.00 0.00 36 1018.6
20260501222003 16 134 9.7 19.3 0.00 0.00 0.00 36 1018.7
20260501221003 16 143 8.0 14.5 0.00 0.00 0.00 35 1018.7
20260501220003 17 123 8.0 16.1 0.00 0.00 0.00 35 1018.7
20260501215003 17 146 6.4 17.7 0.00 0.00 0.00 33 1018.8
20260501214003 17 109 8.0 16.1 0.00 0.00 0.00 34 1018.9
20260501213003 17 131 6.4 19.3 0.00 0.00 0.00 33 1018.8
20260501212003 18 132 6.4 14.5 0.00 0.00 0.00 31 1018.9
20260501211003 18 120 3.2 16.1 0.00 0.00 0.00 31 1018.9
20260501210004 18 131 4.8 16.1 0.00 0.00 0.00 31 1019.0
20260501205003 18 120 6.4 14.5 0.00 0.00 0.00 32 1019.1
20260501204213 18 112 4.8 11.3 0.00 0.00 0.00 33 1019.0
20260501203003 18 171 3.2 11.3 0.00 0.00 0.00 28 1019.2
20260501202003 17 171 4.8 14.5 0.00 0.00 0.00 30 1019.2
20260501201004 17 143 4.8 14.5 0.00 0.00 0.00 32 1019.3
20260501200004 17 82 6.4 14.5 0.00 0.00 0.00 33 1019.3
20260501195003 17 118 1.6 9.7 0.00 0.00 0.00 31 1019.4
20260501194003 16 194 3.2 11.3 0.00 0.00 0.00 31 1019.4
20260501193003 16 131 4.8 11.3 0.00 0.00 0.00 32 1019.5
20260501192003 16 122 6.4 14.5 0.00 0.00 0.00 33 1019.5